INTELSAT 7 (IS-7)

Last updated on Sun May 29 2016 01:45:18 GMT+0000 (Coordinated Universal Time)

1 25473U 98052A 16149.53994040 -.00000182 00000-0 00000+0 0 9991 2 25473 2.4582 75.9188 0005852 69.5883 290.0482 0.98213367 64814

Satellite not in orbit

INTELSAT 7 (IS-7)